Time,TemperatureF,DewpointF,PressureIn,WindDirection,WindDirectionDegrees,WindSpeedMPH,WindSpeedGustMPH,Humidity,HourlyPrecipIn,Conditions,Clouds,dailyrainin,SolarRadiationWatts/m^2,SoftwareType,DateUTC
2013-01-01 00:01:00,34.6,32.5,30.48,East,91,0.0,0.0,92,0.00,,,0.00,0,Wunderground v.1.15,2013-01-01 08:01:00,
2013-01-01 00:06:00,34.6,32.5,30.48,East,91,0.0,0.0,92,0.00,,,0.00,0,Wunderground v.1.15,2013-01-01 08:06:00,
2013-01-01 00:11:00,34.6,32.5,30.48,East,91,0.0,0.0,92,0.00,,,0.00,0,Wunderground v.1.15,2013-01-01 08:11:00,
2013-01-01 00:16:00,34.6,32.8,30.49,East,91,0.0,1.0,93,0.00,,,0.00,0,Wunderground v.1.15,2013-01-01 08:16:00,
2013-01-01 00:21:00,34.8,33.0,30.49,East,91,0.0,1.0,93,0.00,,,0.00,0,Wunderground v.1.15,2013-01-01 08:21:00,
2013-01-01 00:26:00,34.8,33.0,30.49,East,91,0.0,2.0,93,0.00,,,0.00,0,Wunderground v.1.15,2013-01-01 08:26:00,
2013-01-01 00:31:00,34.9,33.1,30.50,East,91,0.0,2.0,93,0.00,,,0.00,0,Wunderground v.1.15,2013-01-01 08:31:00,
2013-01-01 00:36:00,35.1,33.3,30.50,East,91,0.0,0.0,93,0.00,,,0.00,0,Wunderground v.1.15,2013-01-01 08:36:00,
2013-01-01 00:41:00,35.2,33.4,30.49,East,91,0.0,0.0,93,0.00,,,0.00,0,Wunderground v.1.15,2013-01-01 08:41:00,
2013-01-01 00:46:00,35.3,33.5,30.49,East,91,0.0,2.0,93,0.00,,,0.00,0,Wunderground v.1.15,2013-01-01 08:46:00,
2013-01-01 00:51:00,35.3,33.5,30.50,East,92,3.0,3.0,93,0.00,,,0.00,0,Wunderground v.1.15,2013-01-01 08:51:00,
2013-01-01 00:56:00,35.3,33.5,30.49,East,93,1.0,3.0,93,0.00,,,0.00,0,Wunderground v.1.15,2013-01-01 08:56:00,
2013-01-01 01:01:00,35.4,33.6,30.50,East,93,0.0,3.0,93,0.00,,,0.00,0,Wunderground v.1.15,2013-01-01 09:01:00,
2013-01-01 01:06:00,35.4,33.6,30.49,East,93,0.0,2.0,93,0.00,,,0.00,0,Wunderground v.1.15,2013-01-01 09:06:00,
2013-01-01 01:11:00,35.3,33.5,30.50,East,93,0.0,2.0,93,0.00,,,0.00,0,Wunderground v.1.15,2013-01-01 09:11:00,
2013-01-01 01:16:00,35.2,33.4,30.50,East,93,1.0,2.0,93,0.00,,,0.00,0,Wunderground v.1.15,2013-01-01 09:16:00,
2013-01-01 01:21:00,35.1,33.3,30.50,East,93,0.0,2.0,93,0.00,,,0.00,0,Wunderground v.1.15,2013-01-01 09:21:00,
2013-01-01 01:26:00,34.9,33.1,30.50,East,94,0.0,3.0,93,0.00,,,0.00,0,Wunderground v.1.15,2013-01-01 09:26:00,
2013-01-01 01:31:00,34.8,32.7,30.50,East,101,5.0,5.0,92,0.00,,,0.00,0,Wunderground v.1.15,2013-01-01 09:31:00,
2013-01-01 01:36:00,34.6,32.5,30.50,East,98,2.0,6.0,92,0.00,,,0.00,0,Wunderground v.1.15,2013-01-01 09:36:00,
2013-01-01 01:41:00,34.6,32.2,30.51,East,98,3.0,6.0,91,0.00,,,0.00,0,Wunderground v.1.15,2013-01-01 09:41:00,
2013-01-01 01:46:00,34.5,32.1,30.51,East,96,2.0,3.0,91,0.00,,,0.00,0,Wunderground v.1.15,2013-01-01 09:46:00,
2013-01-01 01:51:00,34.5,32.1,30.51,East,96,0.0,3.0,91,0.00,,,0.00,0,Wunderground v.1.15,2013-01-01 09:51:00,
2013-01-01 01:56:00,34.5,32.1,30.51,East,96,1.0,2.0,91,0.00,,,0.00,0,Wunderground v.1.15,2013-01-01 09:56:00,
2013-01-01 02:01:00,34.4,31.8,30.51,East,96,1.0,2.0,90,0.00,,,0.00,0,Wunderground v.1.15,2013-01-01 10:01:00,
2013-01-01 02:06:00,34.3,31.7,30.51,East,96,2.0,2.0,90,0.00,,,0.00,0,Wunderground v.1.15,2013-01-01 10:06:00,
2013-01-01 02:11:00,34.2,31.3,30.51,East,96,1.0,2.0,89,0.00,,,0.00,0,Wunderground v.1.15,2013-01-01 10:11:00,
2013-01-01 02:16:00,34.1,31.2,30.51,East,96,2.0,3.0,89,0.00,,,0.00,0,Wunderground v.1.15,2013-01-01 10:16:00,
2013-01-01 02:21:00,34.1,30.9,30.51,East,96,1.0,3.0,88,0.00,,,0.00,0,Wunderground v.1.15,2013-01-01 10:21:00,
2013-01-01 02:26:00,34.0,30.8,30.52,East,95,0.0,2.0,88,0.00,,,0.00,0,Wunderground v.1.15,2013-01-01 10:26:00,
2013-01-01 02:31:00,34.0,30.8,30.52,East,95,0.0,2.0,88,0.00,,,0.00,0,Wunderground v.1.15,2013-01-01 10:31:00,
2013-01-01 02:36:00,34.0,30.8,30.52,East,95,2.0,2.0,88,0.00,,,0.00,0,Wunderground v.1.15,2013-01-01 10:36:00,
2013-01-01 02:41:00,34.0,31.1,30.52,East,93,2.0,2.0,89,0.00,,,0.00,0,Wunderground v.1.15,2013-01-01 10:41:00,
2013-01-01 02:46:00,33.8,30.9,30.52,East,92,2.0,3.0,89,0.00,,,0.00,0,Wunderground v.1.15,2013-01-01 10:46:00,
2013-01-01 02:51:00,33.8,30.9,30.52,East,92,0.0,3.0,89,0.00,,,0.00,0,Wunderground v.1.15,2013-01-01 10:51:00,
2013-01-01 02:56:00,33.7,30.8,30.52,East,92,0.0,1.0,89,0.00,,,0.00,0,Wunderground v.1.15,2013-01-01 10:56:00,
2013-01-01 03:01:00,33.6,30.7,30.52,East,92,0.0,1.0,89,0.00,,,0.00,0,Wunderground v.1.15,2013-01-01 11:01:00,
2013-01-01 03:06:00,33.5,30.6,30.52,East,92,0.0,0.0,89,0.00,,,0.00,0,Wunderground v.1.15,2013-01-01 11:06:00,
2013-01-01 03:11:00,33.4,30.5,30.52,East,92,0.0,2.0,89,0.00,,,0.00,0,Wunderground v.1.15,2013-01-01 11:11:00,
2013-01-01 03:15:00,33.3,30.4,30.51,East,92,1.0,2.0,89,0.00,,,0.00,0,Wunderground v.1.15,2013-01-01 11:15:00,
2013-01-01 03:21:00,33.1,30.2,30.51,East,92,2.0,2.0,89,0.00,,,0.00,0,Wunderground v.1.15,2013-01-01 11:21:00,
2013-01-01 03:26:00,33.0,30.1,30.51,East,92,0.0,2.0,89,0.00,,,0.00,0,Wunderground v.1.15,2013-01-01 11:26:00,
2013-01-01 03:31:00,32.9,30.0,30.51,East,92,1.0,2.0,89,0.00,,,0.00,0,Wunderground v.1.15,2013-01-01 11:31:00,
2013-01-01 03:36:00,32.8,29.9,30.50,East,92,2.0,2.0,89,0.00,,,0.00,0,Wunderground v.1.15,2013-01-01 11:36:00,
2013-01-01 03:41:00,32.6,29.7,30.50,East,92,1.0,2.0,89,0.00,,,0.00,0,Wunderground v.1.15,2013-01-01 11:41:00,
2013-01-01 03:46:00,32.4,29.5,30.50,East,92,1.0,2.0,89,0.00,,,0.00,0,Wunderground v.1.15,2013-01-01 11:46:00,
2013-01-01 03:51:00,32.3,29.4,30.50,East,92,0.0,2.0,89,0.00,,,0.00,0,Wunderground v.1.15,2013-01-01 11:51:00,
2013-01-01 03:56:00,32.1,29.2,30.50,East,92,0.0,1.0,89,0.00,,,0.00,0,Wunderground v.1.15,2013-01-01 11:56:00,
2013-01-01 04:01:00,31.9,29.0,30.50,East,92,0.0,2.0,89,0.00,,,0.00,0,Wunderground v.1.15,2013-01-01 12:01:00,
2013-01-01 04:06:00,31.7,28.8,30.50,East,92,0.0,2.0,89,0.00,,,0.00,0,Wunderground v.1.15,2013-01-01 12:06:00,
2013-01-01 04:11:00,31.6,29.0,30.50,East,92,0.0,2.0,90,0.00,,,0.00,0,Wunderground v.1.15,2013-01-01 12:11:00,
2013-01-01 04:16:00,31.5,28.9,30.50,East,92,0.0,1.0,90,0.00,,,0.00,0,Wunderground v.1.15,2013-01-01 12:16:00,
2013-01-01 04:21:00,31.5,28.9,30.49,East,92,0.0,2.0,90,0.00,,,0.00,0,Wunderground v.1.15,2013-01-01 12:21:00,
2013-01-01 04:26:00,31.5,28.9,30.49,East,92,1.0,1.0,90,0.00,,,0.00,0,Wunderground v.1.15,2013-01-01 12:26:00,
2013-01-01 04:30:00,31.4,28.8,30.49,East,92,0.0,1.0,90,0.00,,,0.00,0,Wunderground v.1.15,2013-01-01 12:30:00,
2013-01-01 04:35:00,31.4,29.1,30.49,East,92,0.0,1.0,91,0.00,,,0.00,0,Wunderground v.1.15,2013-01-01 12:35:00,
2013-01-01 04:40:00,31.4,29.1,30.49,East,92,0.0,1.0,91,0.00,,,0.00,0,Wunderground v.1.15,2013-01-01 12:40:00,
2013-01-01 04:45:00,31.3,29.0,30.48,East,92,0.0,1.0,91,0.00,,,0.00,0,Wunderground v.1.15,2013-01-01 12:45:00,
2013-01-01 04:50:00,31.3,29.0,30.48,East,92,0.0,2.0,91,0.00,,,0.00,0,Wunderground v.1.15,2013-01-01 12:50:00,
2013-01-01 04:55:00,31.3,29.0,30.48,East,92,0.0,2.0,91,0.00,,,0.00,0,Wunderground v.1.15,2013-01-01 12:55:00,
2013-01-01 05:00:00,31.3,29.0,30.48,East,92,1.0,2.0,91,0.00,,,0.00,0,Wunderground v.1.15,2013-01-01 13:00:00,
2013-01-01 05:05:00,31.5,29.4,30.48,East,92,1.0,2.0,92,0.00,,,0.00,0,Wunderground v.1.15,2013-01-01 13:05:00,
2013-01-01 05:10:00,31.5,29.4,30.48,East,92,0.0,2.0,92,0.00,,,0.00,0,Wunderground v.1.15,2013-01-01 13:10:00,
2013-01-01 05:15:00,31.5,29.4,30.48,East,92,0.0,1.0,92,0.00,,,0.00,0,Wunderground v.1.15,2013-01-01 13:15:00,
2013-01-01 05:20:00,31.3,29.2,30.47,East,92,0.0,1.0,92,0.00,,,0.00,0,Wunderground v.1.15,2013-01-01 13:20:00,
2013-01-01 05:25:00,31.2,28.9,30.47,East,92,0.0,2.0,91,0.00,,,0.00,0,Wunderground v.1.15,2013-01-01 13:25:00,
2013-01-01 05:30:00,31.1,28.8,30.47,East,92,0.0,2.0,91,0.00,,,0.00,0,Wunderground v.1.15,2013-01-01 13:30:00,
2013-01-01 05:35:00,31.1,29.0,30.47,East,92,0.0,2.0,92,0.00,,,0.00,0,Wunderground v.1.15,2013-01-01 13:35:00,
2013-01-01 05:40:00,31.1,29.0,30.47,East,92,1.0,2.0,92,0.00,,,0.00,0,Wunderground v.1.15,2013-01-01 13:40:00,
2013-01-01 05:45:00,31.1,29.0,30.47,East,92,1.0,2.0,92,0.00,,,0.00,0,Wunderground v.1.15,2013-01-01 13:45:00,
2013-01-01 05:50:00,31.1,29.0,30.47,East,92,1.0,2.0,92,0.00,,,0.00,0,Wunderground v.1.15,2013-01-01 13:50:00,
2013-01-01 05:55:00,-999.9,-99.9,30.48,North,32767,-999.0,1.0,255,-99.99,,,0.00,,Wunderground v.1.15,2013-01-01 13:55:00,
2013-01-01 06:00:00,-999.9,-99.9,30.48,North,32767,-999.0,1.0,255,-99.99,,,0.00,,Wunderground v.1.15,2013-01-01 14:00:00,
2013-01-01 06:05:00,-999.9,-99.9,30.48,North,32767,-999.0,-999.0,255,-99.99,,,0.00,,Wunderground v.1.15,2013-01-01 14:05:00,
2013-01-01 06:10:00,31.1,28.8,30.48,East,92,1.0,2.0,91,0.00,,,0.00,0,Wunderground v.1.15,2013-01-01 14:10:00,
2013-01-01 06:15:00,31.1,28.8,30.48,East,92,0.0,3.0,91,0.00,,,0.00,0,Wunderground v.1.15,2013-01-01 14:15:00,
2013-01-01 06:20:00,31.2,28.9,30.49,East,86,1.0,3.0,91,0.00,,,0.00,0,Wunderground v.1.15,2013-01-01 14:20:00,
2013-01-01 06:25:00,31.3,29.0,30.49,East,80,3.0,3.0,91,0.00,,,0.00,0,Wunderground v.1.15,2013-01-01 14:25:00,
2013-01-01 06:30:00,31.3,28.7,30.48,ENE,76,1.0,5.0,90,0.00,,,0.00,0,Wunderground v.1.15,2013-01-01 14:30:00,
2013-01-01 06:35:00,31.3,28.7,30.48,ENE,76,1.0,3.0,90,0.00,,,0.00,0,Wunderground v.1.15,2013-01-01 14:35:00,
2013-01-01 06:40:00,31.2,28.6,30.49,ENE,76,0.0,3.0,90,0.00,,,0.00,0,Wunderground v.1.15,2013-01-01 14:40:00,
2013-01-01 06:45:00,31.1,28.5,30.48,ENE,76,0.0,1.0,90,0.00,,,0.00,0,Wunderground v.1.15,2013-01-01 14:45:00,
2013-01-01 06:50:00,31.0,28.4,30.48,ENE,76,0.0,2.0,90,0.00,,,0.00,0,Wunderground v.1.15,2013-01-01 14:50:00,
2013-01-01 06:55:00,30.9,28.3,30.48,ENE,76,1.0,2.0,90,0.00,,,0.00,0,Wunderground v.1.15,2013-01-01 14:55:00,
2013-01-01 07:00:00,30.8,28.2,30.48,ENE,76,0.0,2.0,90,0.00,,,0.00,0,Wunderground v.1.15,2013-01-01 15:00:00,
2013-01-01 07:05:00,30.7,28.4,30.48,ENE,76,0.0,1.0,91,0.00,,,0.00,0,Wunderground v.1.15,2013-01-01 15:05:00,
2013-01-01 07:10:00,30.6,28.0,30.48,ENE,76,0.0,1.0,90,0.00,,,0.00,0,Wunderground v.1.15,2013-01-01 15:10:00,
2013-01-01 07:15:00,30.5,27.9,30.48,ENE,76,0.0,0.0,90,0.00,,,0.00,0,Wunderground v.1.15,2013-01-01 15:15:00,
2013-01-01 07:20:00,30.3,27.7,30.48,ENE,76,0.0,0.0,90,0.00,,,0.00,0,Wunderground v.1.15,2013-01-01 15:20:00,
2013-01-01 07:25:00,30.3,27.7,30.48,ENE,76,0.0,1.0,90,0.00,,,0.00,0,Wunderground v.1.15,2013-01-01 15:25:00,
2013-01-01 07:30:00,30.2,27.9,30.48,ENE,76,1.0,1.0,91,0.00,,,0.00,0,Wunderground v.1.15,2013-01-01 15:30:00,
2013-01-01 07:35:00,30.3,28.0,30.48,ENE,76,1.0,2.0,91,0.00,,,0.00,0,Wunderground v.1.15,2013-01-01 15:35:00,
2013-01-01 07:40:00,30.4,28.4,30.49,ENE,75,2.0,3.0,92,0.00,,,0.00,0,Wunderground v.1.15,2013-01-01 15:40:00,
2013-01-01 07:45:00,30.6,28.8,30.49,East,89,1.0,3.0,93,0.00,,,0.00,0,Wunderground v.1.15,2013-01-01 15:45:00,
2013-01-01 07:50:00,30.7,28.9,30.49,East,96,1.0,3.0,93,0.00,,,0.00,0,Wunderground v.1.15,2013-01-01 15:50:00,
2013-01-01 07:55:00,30.8,29.0,30.50,East,94,1.0,2.0,93,0.00,,,0.00,0,Wunderground v.1.15,2013-01-01 15:55:00,
2013-01-01 08:00:00,30.9,29.1,30.50,East,92,2.0,3.0,93,0.00,,,0.00,5,Wunderground v.1.15,2013-01-01 16:00:00,
2013-01-01 08:05:00,30.9,29.1,30.50,East,92,0.0,2.0,93,0.00,,,0.00,7,Wunderground v.1.15,2013-01-01 16:05:00,
2013-01-01 08:10:00,31.0,29.2,30.50,East,93,1.0,3.0,93,0.00,,,0.00,9,Wunderground v.1.15,2013-01-01 16:10:00,
2013-01-01 08:15:00,31.1,29.3,30.51,East,92,1.0,2.0,93,0.00,,,0.00,11,Wunderground v.1.15,2013-01-01 16:15:00,
2013-01-01 08:20:00,31.3,29.5,30.51,East,92,0.0,2.0,93,0.00,,,0.00,12,Wunderground v.1.15,2013-01-01 16:20:00,
2013-01-01 08:25:00,31.3,29.5,30.52,East,92,1.0,2.0,93,0.00,,,0.00,14,Wunderground v.1.15,2013-01-01 16:25:00,
2013-01-01 08:30:00,31.3,29.5,30.52,East,86,2.0,3.0,93,0.00,,,0.00,16,Wunderground v.1.15,2013-01-01 16:30:00,
2013-01-01 08:35:00,31.4,29.6,30.52,East,86,1.0,3.0,93,0.00,,,0.00,18,Wunderground v.1.15,2013-01-01 16:35:00,
2013-01-01 08:40:00,31.6,29.8,30.52,East,86,1.0,3.0,93,0.00,,,0.00,21,Wunderground v.1.15,2013-01-01 16:40:00,
2013-01-01 08:45:00,32.0,29.9,30.52,East,86,0.0,3.0,92,0.00,,,0.00,28,Wunderground v.1.15,2013-01-01 16:45:00,
2013-01-01 08:50:00,32.4,30.1,30.52,East,86,0.0,3.0,91,0.00,,,0.00,35,Wunderground v.1.15,2013-01-01 16:50:00,
2013-01-01 08:55:00,32.6,30.0,30.52,East,86,1.0,2.0,90,0.00,,,0.00,42,Wunderground v.1.15,2013-01-01 16:55:00,
2013-01-01 09:00:00,32.7,29.8,30.52,East,86,0.0,3.0,89,0.00,,,0.00,53,Wunderground v.1.15,2013-01-01 17:00:00,
2013-01-01 09:05:00,32.9,30.0,30.52,East,88,1.0,3.0,89,0.00,,,0.00,62,Wunderground v.1.15,2013-01-01 17:05:00,
2013-01-01 09:10:00,33.2,30.0,30.52,East,92,2.0,3.0,88,0.00,,,0.00,69,Wunderground v.1.15,2013-01-01 17:10:00,
2013-01-01 09:15:00,33.4,29.9,30.52,ESE,106,2.0,3.0,87,0.00,,,0.00,74,Wunderground v.1.15,2013-01-01 17:15:00,
2013-01-01 09:20:00,33.8,30.1,30.52,ESE,106,2.0,5.0,86,0.00,,,0.00,83,Wunderground v.1.15,2013-01-01 17:20:00,
2013-01-01 09:25:00,33.9,30.2,30.52,ESE,106,2.0,3.0,86,0.00,,,0.00,88,Wunderground v.1.15,2013-01-01 17:25:00,
2013-01-01 09:30:00,33.9,29.9,30.51,ESE,112,3.0,4.0,85,0.00,,,0.00,93,Wunderground v.1.15,2013-01-01 17:30:00,
2013-01-01 09:35:00,34.4,30.4,30.51,ESE,109,3.0,5.0,85,0.00,,,0.00,100,Wunderground v.1.15,2013-01-01 17:35:00,
2013-01-01 09:40:00,34.5,30.2,30.51,ESE,119,1.0,5.0,84,0.00,,,0.00,107,Wunderground v.1.15,2013-01-01 17:40:00,
2013-01-01 09:45:00,34.6,30.0,30.51,ESE,111,0.0,4.0,83,0.00,,,0.00,113,Wunderground v.1.15,2013-01-01 17:45:00,
2013-01-01 09:50:00,34.9,30.3,30.50,ESE,113,4.0,4.0,83,0.00,,,0.00,125,Wunderground v.1.15,2013-01-01 17:50:00,
2013-01-01 09:55:00,35.1,30.2,30.50,ESE,112,0.0,5.0,82,0.00,,,0.00,132,Wunderground v.1.15,2013-01-01 17:55:00,
2013-01-01 10:00:00,36.9,31.6,30.50,ESE,115,2.0,5.0,81,0.00,,,0.00,141,Wunderground v.1.15,2013-01-01 18:00:00,
2013-01-01 10:05:00,36.6,30.7,30.50,ESE,115,1.0,4.0,79,0.00,,,0.00,149,Wunderground v.1.15,2013-01-01 18:05:00,
2013-01-01 10:10:00,36.7,31.1,30.50,ESE,115,0.0,4.0,80,0.00,,,0.00,156,Wunderground v.1.15,2013-01-01 18:10:00,
2013-01-01 10:15:00,37.1,30.6,30.50,ESE,115,0.0,4.0,77,0.00,,,0.00,165,Wunderground v.1.15,2013-01-01 18:15:00,
2013-01-01 10:20:00,37.2,30.3,30.50,ESE,105,0.0,4.0,76,0.00,,,0.00,172,Wunderground v.1.15,2013-01-01 18:20:00,
2013-01-01 10:25:00,37.6,30.7,30.50,East,97,3.0,5.0,76,0.00,,,0.00,179,Wunderground v.1.15,2013-01-01 18:25:00,
2013-01-01 10:30:00,37.9,31.0,30.50,East,92,1.0,5.0,76,0.00,,,0.00,186,Wunderground v.1.15,2013-01-01 18:30:00,
2013-01-01 10:35:00,37.7,30.2,30.50,ENE,63,2.0,5.0,74,0.00,,,0.00,193,Wunderground v.1.15,2013-01-01 18:35:00,
2013-01-01 10:40:00,37.8,29.9,30.50,East,99,0.0,5.0,73,0.00,,,0.00,199,Wunderground v.1.15,2013-01-01 18:40:00,
2013-01-01 10:45:00,38.4,30.8,30.50,ESE,102,0.0,3.0,74,0.00,,,0.00,200,Wunderground v.1.15,2013-01-01 18:45:00,
2013-01-01 10:50:00,39.7,31.4,30.50,ESE,102,2.0,3.0,72,0.00,,,0.00,209,Wunderground v.1.15,2013-01-01 18:50:00,
2013-01-01 10:55:00,38.8,31.2,30.50,ESE,102,2.0,4.0,74,0.00,,,0.00,214,Wunderground v.1.15,2013-01-01 18:55:00,
2013-01-01 11:00:00,38.7,31.5,30.50,ESE,102,0.0,4.0,75,0.00,,,0.00,220,Wunderground v.1.15,2013-01-01 19:00:00,
2013-01-01 11:05:00,39.5,31.2,30.50,ESE,115,0.0,3.0,72,0.00,,,0.00,225,Wunderground v.1.15,2013-01-01 19:05:00,
2013-01-01 11:10:00,39.5,31.9,30.49,ESE,115,2.0,3.0,74,0.00,,,0.00,229,Wunderground v.1.15,2013-01-01 19:10:00,
2013-01-01 11:15:00,40.0,31.4,30.49,ESE,115,0.0,3.0,71,0.00,,,0.00,234,Wunderground v.1.15,2013-01-01 19:15:00,
2013-01-01 11:20:00,40.4,31.7,30.49,ESE,115,1.0,3.0,71,0.00,,,0.00,237,Wunderground v.1.15,2013-01-01 19:20:00,
2013-01-01 11:25:00,39.9,31.3,30.49,East,86,0.0,3.0,71,0.00,,,0.00,243,Wunderground v.1.15,2013-01-01 19:25:00,
2013-01-01 11:30:00,40.9,32.2,30.49,ESE,106,0.0,3.0,71,0.00,,,0.00,244,Wunderground v.1.15,2013-01-01 19:30:00,
2013-01-01 11:35:00,42.1,32.7,30.49,SE,128,3.0,3.0,69,0.00,,,0.00,246,Wunderground v.1.15,2013-01-01 19:35:00,
2013-01-01 11:40:00,42.7,32.5,30.49,SE,128,1.0,3.0,67,0.00,,,0.00,246,Wunderground v.1.15,2013-01-01 19:40:00,
2013-01-01 11:45:00,42.8,31.8,30.48,East,98,3.0,5.0,65,0.00,,,0.00,243,Wunderground v.1.15,2013-01-01 19:45:00,
2013-01-01 11:50:00,41.8,31.6,30.48,NNE,17,1.0,5.0,67,0.00,,,0.00,239,Wunderground v.1.15,2013-01-01 19:50:00,
2013-01-01 11:55:00,42.0,32.2,30.48,NNE,17,1.0,4.0,68,0.00,,,0.00,241,Wunderground v.1.15,2013-01-01 19:55:00,
2013-01-01 12:00:00,41.3,31.9,30.48,East,84,3.0,4.0,69,0.00,,,0.00,251,Wunderground v.1.15,2013-01-01 20:00:00,
2013-01-01 12:05:00,42.6,33.1,30.47,ENE,63,1.0,3.0,69,0.00,,,0.00,253,Wunderground v.1.15,2013-01-01 20:05:00,
2013-01-01 12:10:00,42.3,32.8,30.48,East,84,5.0,5.0,69,0.00,,,0.00,253,Wunderground v.1.15,2013-01-01 20:10:00,
2013-01-01 12:15:00,42.3,32.8,30.48,NNE,28,3.0,3.0,69,0.00,,,0.00,253,Wunderground v.1.15,2013-01-01 20:15:00,
2013-01-01 12:20:00,42.5,32.7,30.47,North,5,1.0,3.0,68,0.00,,,0.00,251,Wunderground v.1.15,2013-01-01 20:20:00,
2013-01-01 12:25:00,43.5,32.9,30.47,NE,46,1.0,3.0,66,0.00,,,0.00,251,Wunderground v.1.15,2013-01-01 20:25:00,
2013-01-01 12:30:00,43.2,33.7,30.46,NNE,27,1.0,4.0,69,0.00,,,0.00,251,Wunderground v.1.15,2013-01-01 20:30:00,
2013-01-01 12:35:00,43.4,34.3,30.46,ENE,63,0.0,4.0,70,0.00,,,0.00,248,Wunderground v.1.15,2013-01-01 20:35:00,
2013-01-01 12:40:00,43.1,34.0,30.46,NE,51,0.0,4.0,70,0.00,,,0.00,248,Wunderground v.1.15,2013-01-01 20:40:00,
2013-01-01 12:45:00,43.9,34.7,30.46,NE,42,2.0,3.0,70,0.00,,,0.00,246,Wunderground v.1.15,2013-01-01 20:45:00,
2013-01-01 12:50:00,43.4,33.9,30.46,NNW,339,0.0,5.0,69,0.00,,,0.00,246,Wunderground v.1.15,2013-01-01 20:50:00,
2013-01-01 12:55:00,43.5,34.0,30.46,NNE,13,3.0,6.0,69,0.00,,,0.00,248,Wunderground v.1.15,2013-01-01 20:55:00,
2013-01-01 13:00:00,42.9,33.1,30.45,ENE,73,2.0,6.0,68,0.00,,,0.00,239,Wunderground v.1.15,2013-01-01 21:00:00,
2013-01-01 13:05:00,43.7,34.6,30.46,NE,34,1.0,4.0,70,0.00,,,0.00,232,Wunderground v.1.15,2013-01-01 21:05:00,
2013-01-01 13:10:00,43.3,34.5,30.45,NE,46,1.0,5.0,71,0.00,,,0.00,213,Wunderground v.1.15,2013-01-01 21:10:00,
2013-01-01 13:15:00,43.2,35.1,30.45,East,88,3.0,7.0,73,0.00,,,0.00,202,Wunderground v.1.15,2013-01-01 21:15:00,
2013-01-01 13:20:00,42.4,34.7,30.45,NE,53,3.0,7.0,74,0.00,,,0.00,190,Wunderground v.1.15,2013-01-01 21:20:00,
2013-01-01 13:25:00,42.5,34.5,30.45,NW,316,3.0,5.0,73,0.00,,,0.00,186,Wunderground v.1.15,2013-01-01 21:25:00,
2013-01-01 13:30:00,42.9,35.2,30.45,NE,51,4.0,5.0,74,0.00,,,0.00,188,Wunderground v.1.15,2013-01-01 21:30:00,
2013-01-01 13:35:00,42.9,35.2,30.45,NE,54,1.0,3.0,74,0.00,,,0.00,190,Wunderground v.1.15,2013-01-01 21:35:00,
2013-01-01 13:40:00,42.9,35.2,30.45,NNE,16,2.0,5.0,74,0.00,,,0.00,188,Wunderground v.1.15,2013-01-01 21:40:00,
2013-01-01 13:45:00,42.9,35.2,30.45,ENE,77,2.0,3.0,74,0.00,,,0.00,183,Wunderground v.1.15,2013-01-01 21:45:00,
2013-01-01 13:50:00,42.6,34.9,30.45,NE,36,1.0,4.0,74,0.00,,,0.00,181,Wunderground v.1.15,2013-01-01 21:50:00,
2013-01-01 13:55:00,42.8,35.4,30.45,NW,312,1.0,4.0,75,0.00,,,0.00,169,Wunderground v.1.15,2013-01-01 21:55:00,
2013-01-01 14:00:00,43.0,35.6,30.46,NW,319,4.0,4.0,75,0.00,,,0.00,158,Wunderground v.1.15,2013-01-01 22:00:00,
2013-01-01 14:05:00,43.0,35.3,30.46,NNE,14,2.0,4.0,74,0.00,,,0.00,153,Wunderground v.1.15,2013-01-01 22:05:00,
2013-01-01 14:10:00,43.2,35.5,30.46,ENE,63,1.0,4.0,74,0.00,,,0.00,141,Wunderground v.1.15,2013-01-01 22:10:00,
2013-01-01 14:15:00,42.8,34.0,30.46,East,93,1.0,5.0,71,0.00,,,0.00,139,Wunderground v.1.15,2013-01-01 22:15:00,
2013-01-01 14:20:00,42.5,33.4,30.45,East,101,3.0,7.0,70,0.00,,,0.00,130,Wunderground v.1.15,2013-01-01 22:20:00,
2013-01-01 14:25:00,42.5,33.4,30.45,ENE,70,2.0,7.0,70,0.00,,,0.00,128,Wunderground v.1.15,2013-01-01 22:25:00,
2013-01-01 14:30:00,42.5,33.4,30.45,East,94,1.0,7.0,70,0.00,,,0.00,123,Wunderground v.1.15,2013-01-01 22:30:00,
2013-01-01 14:35:00,42.4,33.7,30.45,ESE,113,5.0,7.0,71,0.00,,,0.00,118,Wunderground v.1.15,2013-01-01 22:35:00,
2013-01-01 14:40:00,42.3,33.9,30.45,ENE,71,1.0,7.0,72,0.00,,,0.00,109,Wunderground v.1.15,2013-01-01 22:40:00,
2013-01-01 14:45:00,42.3,33.9,30.45,ESE,104,3.0,5.0,72,0.00,,,0.00,104,Wunderground v.1.15,2013-01-01 22:45:00,
2013-01-01 14:50:00,42.4,34.0,30.45,ENE,57,2.0,5.0,72,0.00,,,0.00,100,Wunderground v.1.15,2013-01-01 22:50:00,
2013-01-01 14:55:00,42.5,34.1,30.45,NE,53,1.0,3.0,72,0.00,,,0.00,93,Wunderground v.1.15,2013-01-01 22:55:00,
2013-01-01 15:00:00,42.3,33.9,30.45,NE,51,1.0,3.0,72,0.00,,,0.00,88,Wunderground v.1.15,2013-01-01 23:00:00,
2013-01-01 15:05:00,42.2,33.5,30.45,ESE,113,3.0,5.0,71,0.00,,,0.00,83,Wunderground v.1.15,2013-01-01 23:05:00,
2013-01-01 15:10:00,42.0,33.6,30.45,East,96,2.0,5.0,72,0.00,,,0.00,81,Wunderground v.1.15,2013-01-01 23:10:00,
2013-01-01 15:15:00,41.9,33.5,30.44,East,101,2.0,4.0,72,0.00,,,0.00,70,Wunderground v.1.15,2013-01-01 23:15:00,
2013-01-01 15:20:00,41.9,33.5,30.44,ESE,104,1.0,4.0,72,0.00,,,0.00,65,Wunderground v.1.15,2013-01-01 23:20:00,
2013-01-01 15:25:00,41.7,33.3,30.44,East,100,2.0,5.0,72,0.00,,,0.00,58,Wunderground v.1.15,2013-01-01 23:25:00,
2013-01-01 15:30:00,41.7,33.3,30.44,ESE,105,3.0,5.0,72,0.00,,,0.00,51,Wunderground v.1.15,2013-01-01 23:30:00,
2013-01-01 15:35:00,41.6,33.2,30.44,East,83,2.0,5.0,72,0.00,,,0.00,46,Wunderground v.1.15,2013-01-01 23:35:00,
2013-01-01 15:40:00,41.3,33.3,30.45,ESE,103,3.0,6.0,73,0.00,,,0.00,40,Wunderground v.1.15,2013-01-01 23:40:00,
2013-01-01 15:45:00,41.2,33.2,30.45,East,95,2.0,5.0,73,0.00,,,0.00,33,Wunderground v.1.15,2013-01-01 23:45:00,
2013-01-01 15:50:00,41.0,33.3,30.45,ESE,104,4.0,5.0,74,0.00,,,0.00,30,Wunderground v.1.15,2013-01-01 23:50:00,
2013-01-01 15:55:00,41.0,33.3,30.44,ESE,104,2.0,4.0,74,0.00,,,0.00,25,Wunderground v.1.15,2013-01-01 23:55:00,
2013-01-01 16:00:00,40.9,33.6,30.44,NE,55,2.0,4.0,75,0.00,,,0.00,19,Wunderground v.1.15,2013-01-02 00:00:00,
2013-01-01 16:05:00,40.8,33.5,30.44,NE,55,2.0,3.0,75,0.00,,,0.00,14,Wunderground v.1.15,2013-01-02 00:05:00,
2013-01-01 16:10:00,40.6,33.6,30.44,NE,55,0.0,3.0,76,0.00,,,0.00,11,Wunderground v.1.15,2013-01-02 00:10:00,
2013-01-01 16:15:00,40.4,33.8,30.44,NE,55,0.0,1.0,77,0.00,,,0.00,9,Wunderground v.1.15,2013-01-02 00:15:00,
2013-01-01 16:20:00,40.1,33.5,30.44,NE,55,0.0,2.0,77,0.00,,,0.00,5,Wunderground v.1.15,2013-01-02 00:20:00,
2013-01-01 16:25:00,40.0,33.4,30.44,NE,55,1.0,2.0,77,0.00,,,0.00,0,Wunderground v.1.15,2013-01-02 00:25:00,
2013-01-01 16:30:00,39.7,33.1,30.44,NE,55,2.0,2.0,77,0.00,,,0.00,0,Wunderground v.1.15,2013-01-02 00:30:00,
2013-01-01 16:35:00,39.5,33.2,30.44,East,90,0.0,5.0,78,0.00,,,0.00,0,Wunderground v.1.15,2013-01-02 00:35:00,
2013-01-01 16:40:00,39.3,33.0,30.44,East,88,1.0,5.0,78,0.00,,,0.00,0,Wunderground v.1.15,2013-01-02 00:40:00,
2013-01-01 16:45:00,39.3,33.3,30.44,East,86,1.0,2.0,79,0.00,,,0.00,0,Wunderground v.1.15,2013-01-02 00:45:00,
2013-01-01 16:50:00,39.1,33.5,30.44,East,85,0.0,2.0,80,0.00,,,0.00,0,Wunderground v.1.15,2013-01-02 00:50:00,
2013-01-01 16:54:00,39.1,33.8,30.44,ENE,65,2.0,4.0,81,0.00,,,0.00,0,Wunderground v.1.15,2013-01-02 00:54:00,
2013-01-01 16:59:00,38.9,33.6,30.43,ENE,67,1.0,4.0,81,0.00,,,0.00,0,Wunderground v.1.15,2013-01-02 00:59:00,
2013-01-01 17:04:00,38.8,33.5,30.43,ENE,67,1.0,3.0,81,0.00,,,0.00,0,Wunderground v.1.15,2013-01-02 01:04:00,
2013-01-01 17:09:00,38.7,33.4,30.43,ENE,69,1.0,3.0,81,0.00,,,0.00,0,Wunderground v.1.15,2013-01-02 01:09:00,
2013-01-01 17:14:00,38.5,33.2,30.43,East,81,2.0,3.0,81,0.00,,,0.00,0,Wunderground v.1.15,2013-01-02 01:14:00,
2013-01-01 17:19:00,38.5,33.2,30.43,East,81,0.0,3.0,81,0.00,,,0.00,0,Wunderground v.1.15,2013-01-02 01:19:00,
2013-01-01 17:24:00,38.4,33.1,30.43,East,98,1.0,3.0,81,0.00,,,0.00,0,Wunderground v.1.15,2013-01-02 01:24:00,
2013-01-01 17:29:00,38.2,32.9,30.43,East,97,0.0,5.0,81,0.00,,,0.00,0,Wunderground v.1.15,2013-01-02 01:29:00,
2013-01-01 17:34:00,38.0,33.0,30.43,East,97,0.0,3.0,82,0.00,,,0.00,0,Wunderground v.1.15,2013-01-02 01:34:00,
2013-01-01 17:39:00,37.9,32.9,30.43,East,97,0.0,3.0,82,0.00,,,0.00,0,Wunderground v.1.15,2013-01-02 01:39:00,
2013-01-01 17:44:00,37.8,32.8,30.42,East,97,0.0,2.0,82,0.00,,,0.00,0,Wunderground v.1.15,2013-01-02 01:44:00,
2013-01-01 17:49:00,37.6,32.9,30.42,East,97,0.0,2.0,83,0.00,,,0.00,0,Wunderground v.1.15,2013-01-02 01:49:00,
2013-01-01 17:54:00,37.5,32.8,30.42,East,97,0.0,0.0,83,0.00,,,0.00,0,Wunderground v.1.15,2013-01-02 01:54:00,
2013-01-01 17:59:00,37.3,32.9,30.42,East,97,0.0,0.0,84,0.00,,,0.00,0,Wunderground v.1.15,2013-01-02 01:59:00,
2013-01-01 18:04:00,37.0,32.6,30.42,East,97,0.0,0.0,84,0.00,,,0.00,0,Wunderground v.1.15,2013-01-02 02:04:00,
2013-01-01 18:09:00,36.9,32.5,30.42,East,97,0.0,0.0,84,0.00,,,0.00,0,Wunderground v.1.15,2013-01-02 02:09:00,
2013-01-01 18:14:00,36.8,32.4,30.42,East,97,0.0,0.0,84,0.00,,,0.00,0,Wunderground v.1.15,2013-01-02 02:14:00,
2013-01-01 18:19:00,36.6,32.2,30.42,East,97,0.0,0.0,84,0.00,,,0.00,0,Wunderground v.1.15,2013-01-02 02:19:00,
2013-01-01 18:24:00,36.4,32.3,30.41,East,97,0.0,0.0,85,0.00,,,0.00,0,Wunderground v.1.15,2013-01-02 02:24:00,
2013-01-01 18:29:00,36.4,32.3,30.41,East,97,0.0,2.0,85,0.00,,,0.00,0,Wunderground v.1.15,2013-01-02 02:29:00,
2013-01-01 18:34:00,36.4,32.3,30.41,East,97,0.0,0.0,85,0.00,,,0.00,0,Wunderground v.1.15,2013-01-02 02:34:00,
2013-01-01 18:39:00,36.2,32.1,30.41,East,97,2.0,2.0,85,0.00,,,0.00,0,Wunderground v.1.15,2013-01-02 02:39:00,
2013-01-01 18:44:00,36.2,32.1,30.41,East,97,1.0,2.0,85,0.00,,,0.00,0,Wunderground v.1.15,2013-01-02 02:44:00,
2013-01-01 18:49:00,36.1,32.0,30.41,East,96,0.0,2.0,85,0.00,,,0.00,0,Wunderground v.1.15,2013-01-02 02:49:00,
2013-01-01 18:54:00,36.1,32.0,30.40,East,97,0.0,1.0,85,0.00,,,0.00,0,Wunderground v.1.15,2013-01-02 02:54:00,
2013-01-01 18:59:00,36.0,31.9,30.40,East,97,0.0,1.0,85,0.00,,,0.00,0,Wunderground v.1.15,2013-01-02 02:59:00,
2013-01-01 19:04:00,36.0,31.9,30.40,East,97,0.0,0.0,85,0.00,,,0.00,0,Wunderground v.1.15,2013-01-02 03:04:00,
2013-01-01 19:09:00,35.9,31.8,30.40,East,97,0.0,2.0,85,0.00,,,0.00,0,Wunderground v.1.15,2013-01-02 03:09:00,
2013-01-01 19:14:00,35.8,31.7,30.40,East,93,1.0,2.0,85,0.00,,,0.00,0,Wunderground v.1.15,2013-01-02 03:14:00,
2013-01-01 19:19:00,35.8,32.0,30.40,East,87,1.0,2.0,86,0.00,,,0.00,0,Wunderground v.1.15,2013-01-02 03:19:00,
2013-01-01 19:24:00,35.9,31.8,30.40,East,86,0.0,2.0,85,0.00,,,0.00,0,Wunderground v.1.15,2013-01-02 03:24:00,
2013-01-01 19:29:00,35.9,31.8,30.39,East,86,0.0,2.0,85,0.00,,,0.00,0,Wunderground v.1.15,2013-01-02 03:29:00,
2013-01-01 19:34:00,35.7,31.6,30.40,East,86,0.0,1.0,85,0.00,,,0.00,0,Wunderground v.1.15,2013-01-02 03:34:00,
2013-01-01 19:39:00,35.7,31.9,30.40,East,86,0.0,2.0,86,0.00,,,0.00,0,Wunderground v.1.15,2013-01-02 03:39:00,
2013-01-01 19:44:00,35.7,31.9,30.40,East,86,0.0,2.0,86,0.00,,,0.00,0,Wunderground v.1.15,2013-01-02 03:44:00,
2013-01-01 19:49:00,35.8,32.0,30.40,East,86,0.0,2.0,86,0.00,,,0.00,0,Wunderground v.1.15,2013-01-02 03:49:00,
2013-01-01 19:54:00,35.7,31.9,30.40,East,86,0.0,0.0,86,0.00,,,0.00,0,Wunderground v.1.15,2013-01-02 03:54:00,
2013-01-01 19:59:00,35.7,31.9,30.40,East,86,0.0,0.0,86,0.00,,,0.00,0,Wunderground v.1.15,2013-01-02 03:59:00,
2013-01-01 20:04:00,35.6,31.8,30.40,East,86,0.0,0.0,86,0.00,,,0.00,0,Wunderground v.1.15,2013-01-02 04:04:00,
2013-01-01 20:09:00,35.4,31.3,30.40,East,86,0.0,0.0,85,0.00,,,0.00,0,Wunderground v.1.15,2013-01-02 04:09:00,
2013-01-01 20:14:00,35.2,31.1,30.39,East,86,0.0,0.0,85,0.00,,,0.00,0,Wunderground v.1.15,2013-01-02 04:14:00,
2013-01-01 20:19:00,35.0,31.2,30.40,East,86,0.0,2.0,86,0.00,,,0.00,0,Wunderground v.1.15,2013-01-02 04:19:00,
2013-01-01 20:24:00,35.0,31.5,30.40,East,86,0.0,1.0,87,0.00,,,0.00,0,Wunderground v.1.15,2013-01-02 04:24:00,
2013-01-01 20:29:00,34.9,31.4,30.40,East,86,0.0,1.0,87,0.00,,,0.00,0,Wunderground v.1.15,2013-01-02 04:29:00,
2013-01-01 20:34:00,34.7,31.2,30.40,East,86,0.0,0.0,87,0.00,,,0.00,0,Wunderground v.1.15,2013-01-02 04:34:00,
2013-01-01 20:39:00,34.7,31.5,30.40,East,86,0.0,1.0,88,0.00,,,0.00,0,Wunderground v.1.15,2013-01-02 04:39:00,
2013-01-01 20:44:00,34.7,31.5,30.40,East,86,0.0,0.0,88,0.00,,,0.00,0,Wunderground v.1.15,2013-01-02 04:44:00,
2013-01-01 20:49:00,34.6,31.4,30.40,East,86,0.0,0.0,88,0.00,,,0.00,0,Wunderground v.1.15,2013-01-02 04:49:00,
2013-01-01 20:54:00,34.5,31.3,30.40,East,86,0.0,0.0,88,0.00,,,0.00,0,Wunderground v.1.15,2013-01-02 04:54:00,
2013-01-01 20:59:00,34.5,31.3,30.40,East,86,0.0,1.0,88,0.00,,,0.00,0,Wunderground v.1.15,2013-01-02 04:59:00,
2013-01-01 21:00:00,34.5,31.3,30.40,East,86,0.0,1.0,88,0.00,,,0.00,0,Wunderground v.1.15,2013-01-02 05:00:00,
2013-01-01 21:03:00,34.4,31.2,30.40,East,86,0.0,0.0,88,0.00,,,0.00,0,Wunderground v.1.15,2013-01-02 05:03:00,
2013-01-01 21:08:00,34.3,31.4,30.40,East,86,1.0,2.0,89,0.00,,,0.00,0,Wunderground v.1.15,2013-01-02 05:08:00,
2013-01-01 21:13:00,34.2,31.3,30.40,East,86,0.0,1.0,89,0.00,,,0.00,0,Wunderground v.1.15,2013-01-02 05:13:00,
2013-01-01 21:18:00,34.2,31.3,30.39,East,86,1.0,2.0,89,0.00,,,0.00,0,Wunderground v.1.15,2013-01-02 05:18:00,
2013-01-01 21:23:00,34.2,31.3,30.40,East,86,0.0,1.0,89,0.00,,,0.00,0,Wunderground v.1.15,2013-01-02 05:23:00,
2013-01-01 21:28:00,34.3,31.7,30.40,East,86,0.0,1.0,90,0.00,,,0.00,0,Wunderground v.1.15,2013-01-02 05:28:00,
2013-01-01 21:33:00,34.3,31.7,30.40,East,86,0.0,0.0,90,0.00,,,0.00,0,Wunderground v.1.15,2013-01-02 05:33:00,
2013-01-01 21:38:00,34.3,31.7,30.40,East,86,0.0,1.0,90,0.00,,,0.00,0,Wunderground v.1.15,2013-01-02 05:38:00,
2013-01-01 21:43:00,34.3,31.7,30.40,East,86,1.0,2.0,90,0.00,,,0.00,0,Wunderground v.1.15,2013-01-02 05:43:00,
2013-01-01 21:48:00,34.1,31.2,30.40,East,86,0.0,2.0,89,0.00,,,0.00,0,Wunderground v.1.15,2013-01-02 05:48:00,
2013-01-01 21:53:00,34.0,31.4,30.40,East,86,0.0,1.0,90,0.00,,,0.00,0,Wunderground v.1.15,2013-01-02 05:53:00,
2013-01-01 21:58:00,34.0,31.4,30.40,East,86,1.0,2.0,90,0.00,,,0.00,0,Wunderground v.1.15,2013-01-02 05:58:00,
2013-01-01 22:03:00,33.9,31.3,30.39,East,86,0.0,0.0,90,0.00,,,0.00,0,Wunderground v.1.15,2013-01-02 06:03:00,
2013-01-01 22:08:00,33.8,31.2,30.39,East,86,0.0,0.0,90,0.00,,,0.00,0,Wunderground v.1.15,2013-01-02 06:08:00,
2013-01-01 22:13:00,33.7,31.1,30.39,East,86,0.0,2.0,90,0.00,,,0.00,0,Wunderground v.1.15,2013-01-02 06:13:00,
2013-01-01 22:18:00,33.7,31.1,30.39,East,86,0.0,2.0,90,0.00,,,0.00,0,Wunderground v.1.15,2013-01-02 06:18:00,
2013-01-01 22:23:00,33.7,31.1,30.39,East,86,0.0,1.0,90,0.00,,,0.00,0,Wunderground v.1.15,2013-01-02 06:23:00,
2013-01-01 22:28:00,33.6,31.0,30.39,East,86,0.0,1.0,90,0.00,,,0.00,0,Wunderground v.1.15,2013-01-02 06:28:00,
2013-01-01 22:33:00,33.5,30.9,30.39,East,86,0.0,0.0,90,0.00,,,0.00,0,Wunderground v.1.15,2013-01-02 06:33:00,
2013-01-01 22:38:00,33.4,30.8,30.39,East,86,0.0,1.0,90,0.00,,,0.00,0,Wunderground v.1.15,2013-01-02 06:38:00,
2013-01-01 22:43:00,33.3,30.7,30.39,East,86,0.0,0.0,90,0.00,,,0.00,0,Wunderground v.1.15,2013-01-02 06:43:00,
2013-01-01 22:48:00,33.3,30.7,30.39,East,86,0.0,1.0,90,0.00,,,0.00,0,Wunderground v.1.15,2013-01-02 06:48:00,
2013-01-01 22:53:00,33.1,30.2,30.39,East,86,0.0,1.0,89,0.00,,,0.00,0,Wunderground v.1.15,2013-01-02 06:53:00,
2013-01-01 22:58:00,33.0,30.1,30.39,East,86,0.0,1.0,89,0.00,,,0.00,0,Wunderground v.1.15,2013-01-02 06:58:00,
2013-01-01 23:03:00,33.0,30.1,30.39,East,86,0.0,1.0,89,0.00,,,0.00,0,Wunderground v.1.15,2013-01-02 07:03:00,
2013-01-01 23:08:00,33.0,30.1,30.39,East,86,0.0,1.0,89,0.00,,,0.00,0,Wunderground v.1.15,2013-01-02 07:08:00,
2013-01-01 23:13:00,33.0,30.1,30.38,East,86,0.0,0.0,89,0.00,,,0.00,0,Wunderground v.1.15,2013-01-02 07:13:00,
2013-01-01 23:18:00,32.9,30.0,30.39,East,86,0.0,1.0,89,0.00,,,0.00,0,Wunderground v.1.15,2013-01-02 07:18:00,
2013-01-01 23:23:00,32.9,30.0,30.39,East,86,0.0,2.0,89,0.00,,,0.00,0,Wunderground v.1.15,2013-01-02 07:23:00,
2013-01-01 23:28:00,32.8,29.9,30.38,East,86,0.0,2.0,89,0.00,,,0.00,0,Wunderground v.1.15,2013-01-02 07:28:00,
2013-01-01 23:33:00,32.7,29.8,30.38,East,86,1.0,2.0,89,0.00,,,0.00,0,Wunderground v.1.15,2013-01-02 07:33:00,
2013-01-01 23:38:00,32.7,29.8,30.38,East,86,1.0,2.0,89,0.00,,,0.00,0,Wunderground v.1.15,2013-01-02 07:38:00,
2013-01-01 23:43:00,32.7,29.8,30.39,East,86,0.0,0.0,89,0.00,,,0.00,0,Wunderground v.1.15,2013-01-02 07:43:00,
2013-01-01 23:48:00,32.6,29.7,30.39,East,86,0.0,1.0,89,0.00,,,0.00,0,Wunderground v.1.15,2013-01-02 07:48:00,
2013-01-01 23:53:00,32.5,29.6,30.39,East,86,0.0,0.0,89,0.00,,,0.00,0,Wunderground v.1.15,2013-01-02 07:53:00,
2013-01-01 23:58:00,32.4,29.2,30.38,East,86,0.0,1.0,88,0.00,,,0.00,0,Wunderground v.1.15,2013-01-02 07:58:00,